Time,TemperatureF,DewpointF,PressureIn,WindDirection,WindDirectionDegrees,WindSpeedMPH,WindSpeedGustMPH,Humidity,HourlyPrecipIn,Conditions,Clouds,dailyrainin,SolarRadiationWatts/m^2,SoftwareType,DateUTC
2013-03-10 00:02:00,34.0,17.8,30.49,SE,140,0.0,0.0,51,0.00,,,0.00,0,WeatherHawk,2013-03-10 08:02:00,
2013-03-10 00:07:00,34.6,18.8,30.49,West,272,0.0,0.0,52,0.00,,,0.00,0,WeatherHawk,2013-03-10 08:07:00,
2013-03-10 00:12:00,32.3,18.4,30.50,West,265,0.0,0.0,56,0.00,,,0.00,0,WeatherHawk,2013-03-10 08:12:00,
2013-03-10 00:17:00,33.8,20.6,30.50,ENE,76,0.0,0.0,58,0.00,,,0.00,0,WeatherHawk,2013-03-10 08:17:00,
2013-03-10 00:22:00,33.4,19.4,30.50,ENE,76,0.0,0.0,56,0.00,,,0.00,0,WeatherHawk,2013-03-10 08:22:00,
2013-03-10 00:27:00,34.8,19.4,30.50,ESE,115,4.0,0.0,53,0.00,,,0.00,0,WeatherHawk,2013-03-10 08:27:00,
2013-03-10 00:32:00,35.0,18.7,30.50,SE,143,0.0,0.0,51,0.00,,,0.00,0,WeatherHawk,2013-03-10 08:32:00,
2013-03-10 00:37:00,35.9,19.1,30.49,SE,145,2.0,0.0,50,0.00,,,0.00,0,WeatherHawk,2013-03-10 08:37:00,
2013-03-10 00:42:00,35.8,17.6,30.49,ESE,110,0.0,0.0,47,0.00,,,0.00,0,WeatherHawk,2013-03-10 08:42:00,
2013-03-10 00:47:00,33.0,18.6,30.49,NNW,335,2.0,0.0,55,0.00,,,0.00,0,WeatherHawk,2013-03-10 08:47:00,
2013-03-10 00:53:00,32.5,20.2,30.49,NNW,335,0.0,0.0,60,0.00,,,0.00,0,WeatherHawk,2013-03-10 08:53:00,
2013-03-10 00:58:00,34.2,18.9,30.49,East,94,0.0,0.0,53,0.00,,,0.00,0,WeatherHawk,2013-03-10 08:58:00,
2013-03-10 01:03:00,33.6,17.8,30.49,SSE,149,0.0,0.0,52,0.00,,,0.00,0,WeatherHawk,2013-03-10 09:03:00,
2013-03-10 01:08:00,34.0,18.3,30.49,South,185,0.0,0.0,52,0.00,,,0.00,0,WeatherHawk,2013-03-10 09:08:00,
2013-03-10 01:14:00,33.4,18.6,30.48,West,272,2.0,0.0,54,0.00,,,0.00,0,WeatherHawk,2013-03-10 09:14:00,
2013-03-10 01:19:00,31.8,18.3,30.49,West,272,0.0,0.0,57,0.00,,,0.00,0,WeatherHawk,2013-03-10 09:19:00,
2013-03-10 01:25:00,31.8,19.1,30.48,South,186,0.0,0.0,59,0.00,,,0.00,0,WeatherHawk,2013-03-10 09:25:00,
2013-03-10 01:30:00,32.3,20.0,30.49,South,186,0.0,0.0,60,0.00,,,0.00,0,WeatherHawk,2013-03-10 09:30:00,
2013-03-10 01:35:00,33.1,19.6,30.48,SSE,150,1.0,-999.0,57,0.00,,,0.00,0,WeatherHawk,2013-03-10 09:35:00,
2013-03-10 01:40:00,32.0,18.9,30.49,SSE,150,0.0,0.0,58,0.00,,,0.00,1,WeatherHawk,2013-03-10 09:40:00,
2013-03-10 01:45:00,32.7,19.9,30.49,SSE,150,0.0,0.0,59,0.00,,,0.00,0,WeatherHawk,2013-03-10 09:45:00,
2013-03-10 01:50:00,33.0,20.2,30.49,SSE,150,2.0,0.0,59,0.00,,,0.00,0,WeatherHawk,2013-03-10 09:50:00,
2013-03-10 01:55:00,30.9,19.4,30.49,NNW,328,0.0,0.0,62,0.00,,,0.00,1,WeatherHawk,2013-03-10 09:55:00,
2013-03-10 03:00:00,31.7,21.3,30.49,WSW,258,0.0,0.0,65,0.00,,,0.00,0,WeatherHawk,2013-03-10 10:00:00,
2013-03-10 03:05:00,30.9,20.5,30.49,South,181,0.0,-999.0,65,-99.99,,,0.00,0,WeatherHawk,2013-03-10 10:05:00,
2013-03-10 03:10:00,31.8,21.4,30.49,South,181,0.0,0.0,65,-99.99,,,0.00,0,WeatherHawk,2013-03-10 10:10:00,
2013-03-10 03:15:00,33.0,21.4,30.49,West,276,0.0,0.0,62,-99.99,,,0.00,0,WeatherHawk,2013-03-10 10:15:00,
2013-03-10 03:20:00,32.0,20.1,30.49,SSW,197,0.0,0.0,61,-99.99,,,0.00,0,WeatherHawk,2013-03-10 10:20:00,
2013-03-10 03:25:00,31.8,19.9,30.49,SSW,197,0.0,-999.0,61,-99.99,,,0.00,0,WeatherHawk,2013-03-10 10:25:00,
2013-03-10 03:30:00,32.6,20.3,30.49,SSE,157,1.0,0.0,60,-99.99,,,0.00,0,WeatherHawk,2013-03-10 10:30:00,
2013-03-10 03:35:00,32.1,19.5,30.49,SSE,157,2.0,0.0,59,-99.99,,,0.00,0,WeatherHawk,2013-03-10 10:35:00,
2013-03-10 03:40:00,32.4,18.5,30.49,SSE,157,0.0,0.0,56,-99.99,,,0.00,0,WeatherHawk,2013-03-10 10:40:00,
2013-03-10 03:45:00,31.8,17.1,30.49,SE,137,2.0,-999.0,54,-99.99,,,0.00,0,WeatherHawk,2013-03-10 10:45:00,
2013-03-10 03:50:00,31.3,20.6,30.49,SW,235,1.0,0.0,64,-99.99,,,0.00,0,WeatherHawk,2013-03-10 10:50:00,
2013-03-10 03:55:00,29.5,17.0,30.49,West,270,0.0,0.0,59,-99.99,,,0.00,0,WeatherHawk,2013-03-10 10:55:00,
2013-03-10 04:00:00,30.0,16.6,30.49,SSE,154,4.0,-999.0,57,-99.99,,,0.00,0,WeatherHawk,2013-03-10 11:00:00,
2013-03-10 04:05:00,30.3,16.9,30.50,SSW,192,2.0,0.0,57,-99.99,,,0.00,0,WeatherHawk,2013-03-10 11:05:00,
2013-03-10 04:10:00,31.9,17.2,30.49,South,173,5.0,0.0,54,-99.99,,,0.00,0,WeatherHawk,2013-03-10 11:10:00,
2013-03-10 04:15:00,31.6,16.5,30.49,South,173,6.0,-999.0,53,-99.99,,,0.00,0,WeatherHawk,2013-03-10 11:15:00,
2013-03-10 04:20:00,32.1,16.9,30.49,SSW,192,5.0,0.0,53,-99.99,,,0.00,1,WeatherHawk,2013-03-10 11:20:00,
2013-03-10 04:25:00,32.4,16.8,30.49,South,183,6.0,0.0,52,-99.99,,,0.00,0,WeatherHawk,2013-03-10 11:25:00,
2013-03-10 04:30:00,33.1,15.6,30.49,SSE,149,8.0,0.0,48,-99.99,,,0.00,0,WeatherHawk,2013-03-10 11:30:00,
2013-03-10 04:35:00,32.3,14.4,30.49,SSE,165,8.0,0.0,47,-99.99,,,0.00,0,WeatherHawk,2013-03-10 11:35:00,
2013-03-10 04:40:00,32.1,14.1,30.49,South,177,6.0,-999.0,47,-99.99,,,0.00,0,WeatherHawk,2013-03-10 11:40:00,
2013-03-10 04:45:00,31.9,13.5,30.49,SSW,193,5.0,0.0,46,-99.99,,,0.00,0,WeatherHawk,2013-03-10 11:45:00,
2013-03-10 04:50:00,32.1,13.2,30.49,SE,146,5.0,-999.0,45,-99.99,,,0.00,1,WeatherHawk,2013-03-10 11:50:00,
2013-03-10 04:55:00,32.4,13.5,30.48,South,172,8.0,-999.0,45,-99.99,,,0.00,0,WeatherHawk,2013-03-10 11:55:00,
2013-03-10 05:00:00,30.2,14.3,30.48,NW,318,1.0,0.0,51,-99.99,,,0.00,0,WeatherHawk,2013-03-10 12:00:00,
2013-03-10 05:05:00,29.6,19.3,30.49,NW,317,1.0,0.0,65,-99.99,,,0.00,0,WeatherHawk,2013-03-10 12:05:00,
2013-03-10 05:10:00,29.1,19.6,30.49,SSE,157,0.0,0.0,67,-99.99,,,0.00,0,WeatherHawk,2013-03-10 12:10:00,
2013-03-10 05:15:00,29.6,20.4,30.49,SE,146,3.0,-999.0,68,-99.99,,,0.00,0,WeatherHawk,2013-03-10 12:15:00,
2013-03-10 05:20:00,30.4,19.7,30.49,SE,141,2.0,-999.0,64,-99.99,,,0.00,0,WeatherHawk,2013-03-10 12:20:00,
2013-03-10 05:25:00,32.3,17.1,30.50,South,180,1.0,-999.0,53,-99.99,,,0.00,0,WeatherHawk,2013-03-10 12:25:00,
2013-03-10 05:30:00,29.6,15.0,30.50,WSW,258,0.0,0.0,54,-99.99,,,0.00,0,WeatherHawk,2013-03-10 12:30:00,
2013-03-10 05:35:00,29.8,20.2,30.50,WSW,258,0.0,0.0,67,-99.99,,,0.00,0,WeatherHawk,2013-03-10 12:35:00,
2013-03-10 05:40:00,29.1,20.8,30.50,WSW,258,0.0,0.0,71,-99.99,,,0.00,1,WeatherHawk,2013-03-10 12:40:00,
2013-03-10 05:45:00,30.9,19.8,30.50,SSW,196,2.0,0.0,63,-99.99,,,0.00,0,WeatherHawk,2013-03-10 12:45:00,
2013-03-10 05:50:00,30.5,20.9,30.51,NW,313,0.0,-999.0,67,-99.99,,,0.00,0,WeatherHawk,2013-03-10 12:50:00,
2013-03-10 05:55:00,30.3,20.0,30.50,SW,236,0.0,0.0,65,-99.99,,,0.00,0,WeatherHawk,2013-03-10 12:55:00,
2013-03-10 06:00:00,29.8,19.5,30.50,NW,324,0.0,-999.0,65,-99.99,,,0.00,1,WeatherHawk,2013-03-10 13:00:00,
2013-03-10 06:05:00,29.3,20.1,30.50,SW,220,0.0,0.0,68,-99.99,,,0.00,0,WeatherHawk,2013-03-10 13:05:00,
2013-03-10 06:10:00,30.4,21.1,30.50,SE,139,0.0,-999.0,68,-99.99,,,0.00,0,WeatherHawk,2013-03-10 13:10:00,
2013-03-10 06:15:00,29.2,20.3,30.50,NW,305,0.0,-999.0,69,-99.99,,,0.00,0,WeatherHawk,2013-03-10 13:15:00,
2013-03-10 06:20:00,29.6,19.7,30.51,ESE,104,0.0,0.0,66,-99.99,,,0.00,0,WeatherHawk,2013-03-10 13:20:00,
2013-03-10 06:25:00,28.9,21.0,30.51,NNW,344,0.0,0.0,72,-99.99,,,0.00,1,WeatherHawk,2013-03-10 13:25:00,
2013-03-10 06:30:00,28.9,21.4,30.51,East,95,0.0,-999.0,73,-99.99,,,0.00,0,WeatherHawk,2013-03-10 13:30:00,
2013-03-10 06:35:00,30.6,21.0,30.51,South,182,4.0,-999.0,67,-99.99,,,0.00,0,WeatherHawk,2013-03-10 13:35:00,
2013-03-10 06:40:00,31.1,16.0,30.51,SW,219,5.0,0.0,53,-99.99,,,0.00,0,WeatherHawk,2013-03-10 13:40:00,
2013-03-10 06:45:00,31.5,15.4,30.51,SSW,202,4.0,-999.0,51,-99.99,,,0.00,0,WeatherHawk,2013-03-10 13:45:00,
2013-03-10 06:50:00,31.4,15.0,30.51,South,184,4.0,0.0,50,-99.99,,,0.00,0,WeatherHawk,2013-03-10 13:50:00,
2013-03-10 06:55:00,31.3,14.4,30.50,SSE,164,6.0,0.0,49,-99.99,,,0.00,0,WeatherHawk,2013-03-10 13:55:00,
2013-03-10 07:00:00,31.6,14.7,30.50,SSW,209,5.0,0.0,49,-99.99,,,0.00,0,WeatherHawk,2013-03-10 14:00:00,
2013-03-10 07:05:00,31.8,14.3,30.50,SW,218,6.0,0.0,48,-99.99,,,0.00,0,WeatherHawk,2013-03-10 14:05:00,
2013-03-10 07:10:00,29.9,14.4,30.50,SW,219,2.0,0.0,52,-99.99,,,0.00,0,WeatherHawk,2013-03-10 14:10:00,
2013-03-10 07:15:00,29.1,17.0,30.50,West,266,2.0,0.0,60,-99.99,,,0.00,0,WeatherHawk,2013-03-10 14:15:00,
2013-03-10 07:20:00,30.0,17.8,30.50,SW,235,2.0,-999.0,60,-99.99,,,0.00,2,WeatherHawk,2013-03-10 14:20:00,
2013-03-10 07:25:00,31.3,16.2,30.50,SSW,205,3.0,0.0,53,-99.99,,,0.00,0,WeatherHawk,2013-03-10 14:25:00,
2013-03-10 07:30:00,32.0,16.8,30.50,SW,218,6.0,-999.0,53,-99.99,,,0.00,4,WeatherHawk,2013-03-10 14:30:00,
2013-03-10 07:35:00,32.0,14.6,30.50,SSW,197,5.0,0.0,48,-99.99,,,0.00,8,WeatherHawk,2013-03-10 14:35:00,
2013-03-10 07:40:00,32.8,13.8,30.49,SSW,207,8.0,0.0,45,-99.99,,,0.00,14,WeatherHawk,2013-03-10 14:40:00,
2013-03-10 07:45:00,33.1,13.6,30.49,SSW,197,7.0,0.0,44,-99.99,,,0.00,17,WeatherHawk,2013-03-10 14:45:00,
2013-03-10 07:50:00,33.0,13.0,30.48,SSE,157,7.0,0.0,43,-99.99,,,0.00,20,WeatherHawk,2013-03-10 14:50:00,
2013-03-10 07:55:00,32.6,12.6,30.48,SSW,197,10.0,0.0,43,-99.99,,,0.00,30,WeatherHawk,2013-03-10 14:55:00,
2013-03-10 08:00:00,33.0,12.4,30.48,SSW,197,8.0,0.0,42,-99.99,,,0.00,39,WeatherHawk,2013-03-10 15:00:00,
2013-03-10 08:05:00,31.6,12.2,30.48,West,261,3.0,0.0,44,-99.99,,,0.00,37,WeatherHawk,2013-03-10 15:05:00,
2013-03-10 08:10:00,30.9,14.5,30.48,WSW,248,0.0,0.0,50,-99.99,,,0.00,41,WeatherHawk,2013-03-10 15:10:00,
2013-03-10 08:15:00,31.7,14.7,30.48,NW,321,1.0,-999.0,49,-99.99,,,0.00,46,WeatherHawk,2013-03-10 15:15:00,
2013-03-10 08:20:00,31.7,14.8,30.48,WSW,241,1.0,0.0,49,-99.99,,,0.00,54,WeatherHawk,2013-03-10 15:20:00,
2013-03-10 08:25:00,31.9,14.5,30.49,SW,221,1.0,-999.0,48,-99.99,,,0.00,56,WeatherHawk,2013-03-10 15:25:00,
2013-03-10 08:30:00,32.5,15.0,30.49,SW,227,0.0,0.0,48,-99.99,,,0.00,57,WeatherHawk,2013-03-10 15:30:00,
2013-03-10 08:35:00,33.4,14.9,30.48,SSW,194,1.0,-999.0,46,-99.99,,,0.00,59,WeatherHawk,2013-03-10 15:35:00,
2013-03-10 08:40:00,34.2,14.1,30.49,South,188,1.0,0.0,43,-99.99,,,0.00,71,WeatherHawk,2013-03-10 15:40:00,
2013-03-10 08:45:00,34.6,13.3,30.49,SSW,201,5.0,-999.0,41,-99.99,,,0.00,84,WeatherHawk,2013-03-10 15:45:00,
2013-03-10 08:50:00,34.6,13.9,30.49,WSW,256,2.0,0.0,42,-99.99,,,0.00,110,WeatherHawk,2013-03-10 15:50:00,
2013-03-10 08:55:00,33.8,13.7,30.48,WSW,253,1.0,-999.0,43,-99.99,,,0.00,128,WeatherHawk,2013-03-10 15:55:00,
2013-03-10 09:00:00,35.8,13.2,30.48,SSW,208,5.0,0.0,39,-99.99,,,0.00,197,WeatherHawk,2013-03-10 16:00:00,
2013-03-10 09:05:00,36.5,12.1,30.48,South,188,5.0,-999.0,36,-99.99,,,0.00,164,WeatherHawk,2013-03-10 16:05:00,
2013-03-10 09:10:00,36.0,11.7,30.48,SSE,167,4.0,0.0,36,-99.99,,,0.00,112,WeatherHawk,2013-03-10 16:10:00,
2013-03-10 09:15:00,35.6,11.9,30.47,SW,215,5.0,0.0,37,-99.99,,,0.00,129,WeatherHawk,2013-03-10 16:15:00,
2013-03-10 09:20:00,35.8,15.5,30.48,West,262,5.0,0.0,43,-99.99,,,0.00,178,WeatherHawk,2013-03-10 16:20:00,
2013-03-10 09:25:00,35.6,15.8,30.48,SSW,213,2.0,0.0,44,-99.99,,,0.00,162,WeatherHawk,2013-03-10 16:25:00,
2013-03-10 09:30:00,35.9,14.6,30.47,SW,233,0.0,0.0,41,-99.99,,,0.00,170,WeatherHawk,2013-03-10 16:30:00,
2013-03-10 09:35:00,35.0,13.2,30.47,NW,306,4.0,0.0,40,-99.99,,,0.00,181,WeatherHawk,2013-03-10 16:35:00,
2013-03-10 09:40:00,38.6,15.8,30.48,SSE,163,0.0,0.0,39,-99.99,,,0.00,244,WeatherHawk,2013-03-10 16:40:00,
2013-03-10 09:45:00,37.3,16.3,30.47,WNW,285,0.0,0.0,42,-99.99,,,0.00,279,WeatherHawk,2013-03-10 16:45:00,
2013-03-10 09:50:00,38.4,11.8,30.47,SW,224,8.0,0.0,33,-99.99,,,0.00,286,WeatherHawk,2013-03-10 16:50:00,
2013-03-10 09:55:00,39.8,12.3,30.47,South,188,4.0,0.0,32,-99.99,,,0.00,357,WeatherHawk,2013-03-10 16:55:00,
2013-03-10 10:00:00,39.0,9.5,30.47,SSW,199,4.0,0.0,29,-99.99,,,0.00,294,WeatherHawk,2013-03-10 17:00:00,
2013-03-10 10:05:00,38.8,11.5,30.46,SSE,163,4.0,0.0,32,-99.99,,,0.00,234,WeatherHawk,2013-03-10 17:05:00,
2013-03-10 10:10:00,37.1,13.9,30.47,SSW,203,3.0,0.0,38,-99.99,,,0.00,203,WeatherHawk,2013-03-10 17:10:00,
2013-03-10 10:15:00,38.5,11.9,30.46,WSW,242,1.0,-999.0,33,-99.99,,,0.00,178,WeatherHawk,2013-03-10 17:15:00,
2013-03-10 10:20:00,40.7,10.1,30.45,South,184,0.0,0.0,28,-99.99,,,0.00,163,WeatherHawk,2013-03-10 17:20:00,
2013-03-10 10:25:00,40.1,8.8,30.45,SSE,160,6.0,-999.0,27,-99.99,,,0.00,205,WeatherHawk,2013-03-10 17:25:00,
2013-03-10 10:30:00,40.9,7.8,30.45,SSW,199,4.0,0.0,25,-99.99,,,0.00,200,WeatherHawk,2013-03-10 17:30:00,
2013-03-10 10:35:00,41.7,7.6,30.45,SW,227,6.0,-999.0,24,-99.99,,,0.00,385,WeatherHawk,2013-03-10 17:35:00,
2013-03-10 10:40:00,43.7,8.4,30.44,South,172,6.0,0.0,23,-99.99,,,0.00,445,WeatherHawk,2013-03-10 17:40:00,
2013-03-10 10:45:00,43.9,5.5,30.43,SSE,152,5.0,0.0,20,-99.99,,,0.00,384,WeatherHawk,2013-03-10 17:45:00,
2013-03-10 10:50:00,43.3,2.7,30.43,ESE,102,6.0,0.0,18,-99.99,,,0.00,365,WeatherHawk,2013-03-10 17:50:00,
2013-03-10 10:55:00,46.2,2.5,30.43,WSW,240,4.0,-999.0,16,-99.99,,,0.00,342,WeatherHawk,2013-03-10 17:55:00,
2013-03-10 11:00:00,43.0,-0.1,30.43,SSW,201,5.0,0.0,16,-99.99,,,0.00,381,WeatherHawk,2013-03-10 18:00:00,
2013-03-10 11:05:00,44.2,0.9,30.42,South,169,5.0,0.0,16,-99.99,,,0.00,308,WeatherHawk,2013-03-10 18:05:00,
2013-03-10 11:10:00,45.0,0.2,30.41,SSW,200,5.0,0.0,15,-99.99,,,0.00,271,WeatherHawk,2013-03-10 18:10:00,
2013-03-10 11:15:00,41.8,7.7,30.42,NW,320,0.0,0.0,24,-99.99,,,0.00,239,WeatherHawk,2013-03-10 18:15:00,
2013-03-10 11:20:00,44.4,9.9,30.42,SW,230,2.0,0.0,24,-99.99,,,0.00,242,WeatherHawk,2013-03-10 18:20:00,
2013-03-10 11:25:00,41.8,7.7,30.42,NNW,327,0.0,0.0,24,-99.99,,,0.00,232,WeatherHawk,2013-03-10 18:25:00,
2013-03-10 11:30:00,41.4,8.2,30.42,NNW,344,4.0,-999.0,25,-99.99,,,0.00,215,WeatherHawk,2013-03-10 18:30:00,
2013-03-10 11:35:00,40.0,10.4,30.42,NNW,340,5.0,0.0,29,-99.99,,,0.00,254,WeatherHawk,2013-03-10 18:35:00,
2013-03-10 11:40:00,43.8,11.2,30.42,West,280,0.0,-999.0,26,-99.99,,,0.00,290,WeatherHawk,2013-03-10 18:40:00,
2013-03-10 11:45:00,44.0,4.5,30.42,SW,214,0.0,0.0,19,-99.99,,,0.00,369,WeatherHawk,2013-03-10 18:45:00,
2013-03-10 11:50:00,45.5,0.6,30.42,WSW,240,2.0,-999.0,15,-99.99,,,0.00,364,WeatherHawk,2013-03-10 18:50:00,
2013-03-10 11:55:00,47.6,2.3,30.41,WSW,246,0.0,-999.0,15,-99.99,,,0.00,368,WeatherHawk,2013-03-10 18:55:00,
2013-03-10 12:00:00,49.6,2.4,30.40,South,185,2.0,0.0,14,-99.99,,,0.00,401,WeatherHawk,2013-03-10 19:00:00,
2013-03-10 12:05:00,43.8,0.6,30.41,NNW,332,0.0,0.0,16,-99.99,,,0.00,334,WeatherHawk,2013-03-10 19:05:00,
2013-03-10 12:10:00,44.9,0.1,30.40,WNW,285,3.0,0.0,15,-99.99,,,0.00,357,WeatherHawk,2013-03-10 19:10:00,
2013-03-10 12:16:00,46.9,6.8,30.40,South,178,2.0,0.0,19,-99.99,,,0.00,350,WeatherHawk,2013-03-10 19:16:00,
2013-03-10 12:21:00,45.8,0.8,30.39,NW,326,4.0,0.0,15,-99.99,,,0.00,332,WeatherHawk,2013-03-10 19:21:00,
2013-03-10 12:26:00,47.9,-0.5,30.39,WSW,249,1.0,0.0,13,-99.99,,,0.00,339,WeatherHawk,2013-03-10 19:26:00,
2013-03-10 12:31:00,49.3,-3.0,30.39,South,190,7.0,0.0,11,-99.99,,,0.00,318,WeatherHawk,2013-03-10 19:31:00,
2013-03-10 12:36:00,44.8,-4.6,30.39,NW,312,2.0,0.0,12,-99.99,,,0.00,336,WeatherHawk,2013-03-10 19:36:00,
2013-03-10 12:42:00,46.7,-5.0,30.39,West,263,2.0,0.0,11,-99.99,,,0.00,286,WeatherHawk,2013-03-10 19:42:00,
2013-03-10 12:47:00,47.5,0.7,30.39,WNW,293,0.0,0.0,14,-99.99,,,0.00,303,WeatherHawk,2013-03-10 19:47:00,
2013-03-10 12:53:00,51.1,-1.5,30.39,SSW,193,2.0,0.0,11,-99.99,,,0.00,595,WeatherHawk,2013-03-10 19:53:00,
2013-03-10 12:58:00,54.0,-6.0,30.37,SSW,209,0.0,0.0,8,-99.99,,,0.00,603,WeatherHawk,2013-03-10 19:58:00,
2013-03-10 13:03:00,54.2,-3.3,30.37,SSW,204,4.0,0.0,9,-99.99,,,0.00,600,WeatherHawk,2013-03-10 20:03:00,
2013-03-10 13:09:00,54.1,-3.5,30.37,SW,222,5.0,0.0,9,-99.99,,,0.00,572,WeatherHawk,2013-03-10 20:09:00,
2013-03-10 13:14:00,51.0,-8.2,30.36,West,263,2.0,0.0,8,-99.99,,,0.00,552,WeatherHawk,2013-03-10 20:14:00,
2013-03-10 13:20:00,49.5,-6.9,30.36,WNW,298,7.0,0.0,9,-99.99,,,0.00,547,WeatherHawk,2013-03-10 20:20:00,
2013-03-10 13:25:00,52.0,-2.8,30.36,NNW,336,3.0,-999.0,10,-99.99,,,0.00,528,WeatherHawk,2013-03-10 20:25:00,
2013-03-10 13:30:00,55.4,-7.7,30.35,West,275,0.0,0.0,7,-99.99,,,0.00,327,WeatherHawk,2013-03-10 20:30:00,
2013-03-10 13:35:00,53.2,-9.3,30.35,NW,323,1.0,0.0,7,-99.99,,,0.00,596,WeatherHawk,2013-03-10 20:35:00,
2013-03-10 13:40:00,53.6,-1.7,30.34,WSW,258,3.0,0.0,10,-99.99,,,0.00,357,WeatherHawk,2013-03-10 20:40:00,
2013-03-10 13:45:00,55.0,-0.6,30.35,NNW,347,4.0,-999.0,10,-99.99,,,0.00,496,WeatherHawk,2013-03-10 20:45:00,
2013-03-10 13:50:00,57.1,1.1,30.34,NNW,331,3.0,0.0,10,-99.99,,,0.00,512,WeatherHawk,2013-03-10 20:50:00,
2013-03-10 13:56:00,56.2,-4.3,30.34,SW,221,5.0,0.0,8,-99.99,,,0.00,495,WeatherHawk,2013-03-10 20:56:00,
2013-03-10 14:01:00,58.4,-5.4,30.34,South,186,0.0,0.0,7,-99.99,,,0.00,489,WeatherHawk,2013-03-10 21:01:00,
2013-03-10 14:06:00,59.0,-5.0,30.34,West,261,1.0,0.0,7,-99.99,,,0.00,579,WeatherHawk,2013-03-10 21:06:00,
2013-03-10 14:12:00,56.4,-6.9,30.34,NW,313,2.0,0.0,7,-99.99,,,0.00,400,WeatherHawk,2013-03-10 21:12:00,
2013-03-10 14:17:00,56.5,-6.8,30.33,NW,307,7.0,0.0,7,-99.99,,,0.00,496,WeatherHawk,2013-03-10 21:17:00,
2013-03-10 14:23:00,56.9,-6.5,30.34,West,270,5.0,0.0,7,-99.99,,,0.00,423,WeatherHawk,2013-03-10 21:23:00,
2013-03-10 14:28:00,60.6,-3.8,30.33,SW,235,1.0,0.0,7,-99.99,,,0.00,329,WeatherHawk,2013-03-10 21:28:00,
2013-03-10 14:33:00,58.0,-8.9,30.33,NW,322,0.0,0.0,6,-99.99,,,0.00,400,WeatherHawk,2013-03-10 21:33:00,
2013-03-10 14:39:00,57.1,-9.5,30.32,West,278,4.0,0.0,6,-99.99,,,0.00,523,WeatherHawk,2013-03-10 21:39:00,
2013-03-10 14:44:00,56.5,-9.9,30.33,West,279,6.0,0.0,6,-99.99,,,0.00,391,WeatherHawk,2013-03-10 21:44:00,
2013-03-10 14:49:00,56.5,-10.0,30.33,WNW,294,7.0,0.0,6,-99.99,,,0.00,267,WeatherHawk,2013-03-10 21:49:00,
2013-03-10 14:55:00,56.6,-4.0,30.33,West,271,9.0,0.0,8,-99.99,,,0.00,205,WeatherHawk,2013-03-10 21:55:00,
2013-03-10 15:00:00,56.9,-1.3,30.33,West,267,5.0,-999.0,9,-99.99,,,0.00,178,WeatherHawk,2013-03-10 22:00:00,
2013-03-10 15:05:00,56.2,-1.8,30.33,West,277,4.0,-999.0,9,-99.99,,,0.00,178,WeatherHawk,2013-03-10 22:05:00,
2013-03-10 15:10:00,57.8,-3.1,30.33,West,274,5.0,0.0,8,-99.99,,,0.00,197,WeatherHawk,2013-03-10 22:10:00,
2013-03-10 15:15:00,56.4,4.5,30.33,NW,304,18.0,0.0,12,-99.99,,,0.00,178,WeatherHawk,2013-03-10 22:15:00,
2013-03-10 15:20:00,56.8,2.9,30.34,WSW,238,6.0,0.0,11,-99.99,,,0.00,162,WeatherHawk,2013-03-10 22:20:00,
2013-03-10 15:25:00,56.8,6.5,30.33,West,262,9.0,0.0,13,-99.99,,,0.00,185,WeatherHawk,2013-03-10 22:25:00,
2013-03-10 15:30:00,57.0,6.7,30.34,SW,236,6.0,0.0,13,-99.99,,,0.00,337,WeatherHawk,2013-03-10 22:30:00,
2013-03-10 15:35:00,56.9,6.6,30.33,WSW,253,12.0,0.0,13,-99.99,,,0.00,236,WeatherHawk,2013-03-10 22:35:00,
2013-03-10 15:40:00,56.2,9.2,30.34,WNW,290,10.0,-999.0,15,-99.99,,,0.00,182,WeatherHawk,2013-03-10 22:40:00,
2013-03-10 15:45:00,55.9,10.4,30.34,NW,307,6.0,-999.0,16,-99.99,,,0.00,208,WeatherHawk,2013-03-10 22:45:00,
2013-03-10 15:50:00,57.1,11.3,30.34,WNW,292,7.0,0.0,16,-99.99,,,0.00,188,WeatherHawk,2013-03-10 22:50:00,
2013-03-10 15:55:00,56.5,10.9,30.33,West,262,9.0,0.0,16,-99.99,,,0.00,310,WeatherHawk,2013-03-10 22:55:00,
2013-03-10 16:00:00,56.7,9.6,30.34,West,279,7.0,0.0,15,-99.99,,,0.00,311,WeatherHawk,2013-03-10 23:00:00,
2013-03-10 16:05:00,56.1,11.9,30.34,South,187,11.0,0.0,17,-99.99,,,0.00,352,WeatherHawk,2013-03-10 23:05:00,
2013-03-10 16:10:00,55.0,12.3,30.34,NW,317,9.0,0.0,18,-99.99,,,0.00,396,WeatherHawk,2013-03-10 23:10:00,
2013-03-10 16:15:00,55.1,11.1,30.34,West,260,8.0,-999.0,17,-99.99,,,0.00,384,WeatherHawk,2013-03-10 23:15:00,
2013-03-10 16:20:00,56.8,16.2,30.34,West,259,4.0,0.0,20,-99.99,,,0.00,162,WeatherHawk,2013-03-10 23:20:00,
2013-03-10 16:25:00,54.3,17.3,30.34,WNW,297,8.0,0.0,23,-99.99,,,0.00,186,WeatherHawk,2013-03-10 23:25:00,
2013-03-10 16:30:00,54.9,19.7,30.34,WSW,243,10.0,-999.0,25,-99.99,,,0.00,142,WeatherHawk,2013-03-10 23:30:00,
2013-03-10 16:35:00,54.3,19.2,30.34,West,265,12.0,0.0,25,-99.99,,,0.00,125,WeatherHawk,2013-03-10 23:35:00,
2013-03-10 16:40:00,54.0,19.9,30.34,West,263,8.0,0.0,26,-99.99,,,0.00,136,WeatherHawk,2013-03-10 23:40:00,
2013-03-10 16:45:00,54.6,20.4,30.33,SE,138,11.0,0.0,26,-99.99,,,0.00,131,WeatherHawk,2013-03-10 23:45:00,
2013-03-10 16:50:00,54.7,21.4,30.34,WSW,249,8.0,0.0,27,-99.99,,,0.00,122,WeatherHawk,2013-03-10 23:50:00,
2013-03-10 16:55:00,53.8,21.5,30.34,WSW,249,14.0,0.0,28,-99.99,,,0.00,122,WeatherHawk,2013-03-10 23:55:00,
2013-03-10 17:00:00,53.8,22.3,30.34,NW,310,7.0,-999.0,29,-99.99,,,0.00,103,WeatherHawk,2013-03-11 00:00:00,
2013-03-10 17:05:00,53.4,22.7,30.34,West,274,13.0,-999.0,30,-99.99,,,0.00,89,WeatherHawk,2013-03-11 00:05:00,
2013-03-10 17:10:00,53.3,22.7,30.34,West,281,12.0,-999.0,30,-99.99,,,0.00,85,WeatherHawk,2013-03-11 00:10:00,
2013-03-10 17:15:00,53.5,22.8,30.34,West,274,4.0,0.0,30,-99.99,,,0.00,81,WeatherHawk,2013-03-11 00:15:00,
2013-03-10 17:20:00,53.9,23.2,30.34,SSE,166,4.0,0.0,30,-99.99,,,0.00,74,WeatherHawk,2013-03-11 00:20:00,
2013-03-10 17:25:00,53.4,23.6,30.34,West,273,8.0,0.0,31,-99.99,,,0.00,69,WeatherHawk,2013-03-11 00:25:00,
2013-03-10 17:30:00,53.3,23.5,30.34,WSW,255,6.0,0.0,31,-99.99,,,0.00,66,WeatherHawk,2013-03-11 00:30:00,
2013-03-10 17:35:00,53.1,23.3,30.34,WSW,250,6.0,-999.0,31,-99.99,,,0.00,61,WeatherHawk,2013-03-11 00:35:00,
2013-03-10 17:40:00,53.0,23.2,30.34,West,266,6.0,0.0,31,-99.99,,,0.00,52,WeatherHawk,2013-03-11 00:40:00,
2013-03-10 17:45:00,53.2,24.1,30.34,West,264,7.0,-999.0,32,-99.99,,,0.00,55,WeatherHawk,2013-03-11 00:45:00,
2013-03-10 17:50:00,52.6,23.6,30.34,WNW,292,10.0,0.0,32,-99.99,,,0.00,52,WeatherHawk,2013-03-11 00:50:00,
2013-03-10 17:55:00,52.9,24.6,30.34,WSW,249,3.0,0.0,33,-99.99,,,0.00,74,WeatherHawk,2013-03-11 00:55:00,
2013-03-10 18:00:00,53.3,24.2,30.35,SW,230,2.0,0.0,32,-99.99,,,0.00,64,WeatherHawk,2013-03-11 01:00:00,
2013-03-10 18:05:00,52.4,23.4,30.34,WSW,240,7.0,0.0,32,-99.99,,,0.00,42,WeatherHawk,2013-03-11 01:05:00,
2013-03-10 18:10:00,51.9,23.7,30.35,West,259,7.0,0.0,33,-99.99,,,0.00,29,WeatherHawk,2013-03-11 01:10:00,
2013-03-10 18:15:00,51.7,24.3,30.35,WSW,248,7.0,0.0,34,-99.99,,,0.00,30,WeatherHawk,2013-03-11 01:15:00,
2013-03-10 18:20:00,51.6,25.6,30.35,NW,316,3.0,0.0,36,-99.99,,,0.00,22,WeatherHawk,2013-03-11 01:20:00,
2013-03-10 18:25:00,51.2,25.8,30.35,WSW,244,3.0,0.0,37,-99.99,,,0.00,21,WeatherHawk,2013-03-11 01:25:00,
2013-03-10 18:30:00,51.4,26.0,30.35,WSW,248,5.0,0.0,37,-99.99,,,0.00,19,WeatherHawk,2013-03-11 01:30:00,
2013-03-10 18:35:00,51.1,26.4,30.36,WSW,254,5.0,-999.0,38,-99.99,,,0.00,15,WeatherHawk,2013-03-11 01:35:00,
2013-03-10 18:40:00,50.9,26.2,30.36,SW,225,4.0,0.0,38,-99.99,,,0.00,10,WeatherHawk,2013-03-11 01:40:00,
2013-03-10 18:45:00,50.6,26.6,30.35,WNW,288,6.0,0.0,39,-99.99,,,0.00,8,WeatherHawk,2013-03-11 01:45:00,
2013-03-10 18:50:00,50.5,26.5,30.35,WSW,252,10.0,0.0,39,-99.99,,,0.00,6,WeatherHawk,2013-03-11 01:50:00,
2013-03-10 18:55:00,50.1,26.8,30.36,SW,227,10.0,0.0,40,-99.99,,,0.00,5,WeatherHawk,2013-03-11 01:55:00,
2013-03-10 19:00:00,50.1,26.7,30.35,WSW,254,6.0,0.0,40,-99.99,,,0.00,3,WeatherHawk,2013-03-11 02:00:00,
2013-03-10 19:05:00,50.1,27.4,30.36,WSW,244,8.0,0.0,41,-99.99,,,0.00,0,WeatherHawk,2013-03-11 02:05:00,
2013-03-10 19:10:00,49.9,27.7,30.36,WSW,249,8.0,-999.0,42,-99.99,,,0.00,0,WeatherHawk,2013-03-11 02:10:00,
2013-03-10 19:15:00,49.4,27.9,30.36,West,266,3.0,0.0,43,-99.99,,,0.00,0,WeatherHawk,2013-03-11 02:15:00,
2013-03-10 19:20:00,49.1,27.5,30.36,WSW,248,3.0,-999.0,43,-99.99,,,0.00,0,WeatherHawk,2013-03-11 02:20:00,
2013-03-10 19:25:00,48.8,26.7,30.36,WSW,247,6.0,-999.0,42,-99.99,,,0.00,0,WeatherHawk,2013-03-11 02:25:00,
2013-03-10 19:30:00,48.4,26.9,30.36,SW,226,0.0,0.0,43,-99.99,,,0.00,0,WeatherHawk,2013-03-11 02:30:00,
2013-03-10 19:35:00,48.7,27.2,30.36,SSW,210,7.0,0.0,43,-99.99,,,0.00,0,WeatherHawk,2013-03-11 02:35:00,
2013-03-10 19:40:00,48.5,27.6,30.36,SW,224,5.0,0.0,44,-99.99,,,0.00,0,WeatherHawk,2013-03-11 02:40:00,
2013-03-10 19:45:00,48.3,27.5,30.36,WSW,246,5.0,0.0,44,-99.99,,,0.00,0,WeatherHawk,2013-03-11 02:45:00,
2013-03-10 19:50:00,48.4,27.5,30.36,SW,219,7.0,-999.0,44,-99.99,,,0.00,0,WeatherHawk,2013-03-11 02:50:00,
2013-03-10 19:55:00,48.1,27.8,30.37,WSW,246,5.0,0.0,45,-99.99,,,0.00,0,WeatherHawk,2013-03-11 02:55:00,
2013-03-10 20:00:00,48.1,27.8,30.36,SW,228,1.0,-999.0,45,-99.99,,,0.00,0,WeatherHawk,2013-03-11 03:00:00,
2013-03-10 20:05:00,48.2,27.9,30.36,SW,217,4.0,0.0,45,-99.99,,,0.00,0,WeatherHawk,2013-03-11 03:05:00,
2013-03-10 20:10:00,48.5,28.1,30.36,SW,218,5.0,0.0,45,-99.99,,,0.00,0,WeatherHawk,2013-03-11 03:10:00,
2013-03-10 20:15:00,48.2,27.8,30.36,SW,231,6.0,-999.0,45,-99.99,,,0.00,0,WeatherHawk,2013-03-11 03:15:00,
2013-03-10 20:20:00,48.2,27.9,30.36,WSW,253,5.0,0.0,45,-99.99,,,0.00,0,WeatherHawk,2013-03-11 03:20:00,
2013-03-10 20:25:00,48.1,27.7,30.36,SSW,202,4.0,0.0,45,-99.99,,,0.00,0,WeatherHawk,2013-03-11 03:25:00,
2013-03-10 20:30:00,47.8,27.5,30.36,SSW,193,4.0,0.0,45,-99.99,,,0.00,1,WeatherHawk,2013-03-11 03:30:00,
2013-03-10 20:35:00,47.8,27.5,30.36,SW,228,3.0,-999.0,45,-99.99,,,0.00,0,WeatherHawk,2013-03-11 03:35:00,
2013-03-10 20:40:00,47.8,28.0,30.36,SW,216,3.0,0.0,46,-99.99,,,0.00,0,WeatherHawk,2013-03-11 03:40:00,
2013-03-10 20:45:00,48.0,28.2,30.36,SW,214,5.0,-999.0,46,-99.99,,,0.00,0,WeatherHawk,2013-03-11 03:45:00,
2013-03-10 20:50:00,48.2,27.8,30.36,SSW,201,6.0,0.0,45,-99.99,,,0.00,0,WeatherHawk,2013-03-11 03:50:00,
2013-03-10 20:55:00,48.3,28.0,30.36,SSW,199,5.0,0.0,45,-99.99,,,0.00,0,WeatherHawk,2013-03-11 03:55:00,
2013-03-10 21:00:00,47.9,28.2,30.36,SSW,195,5.0,0.0,46,-99.99,,,0.00,0,WeatherHawk,2013-03-11 04:00:00,
2013-03-10 21:06:00,47.8,28.1,30.36,SSW,204,5.0,0.0,46,-99.99,,,0.00,0,WeatherHawk,2013-03-11 04:06:00,
2013-03-10 21:12:00,47.7,27.9,30.36,SW,232,1.0,0.0,46,-99.99,,,0.00,0,WeatherHawk,2013-03-11 04:12:00,
2013-03-10 21:17:00,48.3,29.0,30.35,WNW,284,7.0,0.0,47,-99.99,,,0.00,0,WeatherHawk,2013-03-11 04:17:00,
2013-03-10 21:22:00,47.6,28.4,30.36,West,278,3.0,0.0,47,-99.99,,,0.00,0,WeatherHawk,2013-03-11 04:22:00,
2013-03-10 21:28:00,48.2,28.9,30.35,SSW,205,6.0,0.0,47,-99.99,,,0.00,0,WeatherHawk,2013-03-11 04:28:00,
2013-03-10 21:33:00,47.8,29.1,30.36,WSW,246,4.0,0.0,48,-99.99,,,0.00,0,WeatherHawk,2013-03-11 04:33:00,
2013-03-10 21:38:00,46.4,28.3,30.36,WNW,282,0.0,0.0,49,-99.99,,,0.00,0,WeatherHawk,2013-03-11 04:38:00,
2013-03-10 21:43:00,47.1,29.4,30.36,South,173,0.0,0.0,50,-99.99,,,0.00,0,WeatherHawk,2013-03-11 04:43:00,
2013-03-10 21:48:00,48.2,31.4,30.36,NNW,336,3.0,0.0,52,-99.99,,,0.00,0,WeatherHawk,2013-03-11 04:48:00,
2013-03-10 21:53:00,47.5,30.3,30.37,NW,319,0.0,0.0,51,-99.99,,,0.00,0,WeatherHawk,2013-03-11 04:53:00,
2013-03-10 21:58:00,46.5,29.3,30.37,WNW,282,0.0,0.0,51,-99.99,,,0.00,0,WeatherHawk,2013-03-11 04:58:00,
2013-03-10 22:03:00,47.2,31.0,30.37,SSW,206,1.0,0.0,53,-99.99,,,0.00,0,WeatherHawk,2013-03-11 05:03:00,
2013-03-10 22:08:00,48.3,32.0,30.37,West,269,2.0,0.0,53,-99.99,,,0.00,0,WeatherHawk,2013-03-11 05:08:00,
2013-03-10 22:14:00,48.3,31.9,30.37,WSW,249,2.0,0.0,53,-99.99,,,0.00,0,WeatherHawk,2013-03-11 05:14:00,
2013-03-10 22:19:00,46.7,30.5,30.37,SW,216,0.0,0.0,53,-99.99,,,0.00,0,WeatherHawk,2013-03-11 05:19:00,
2013-03-10 22:24:00,46.3,30.6,30.37,WSW,258,0.0,0.0,54,-99.99,,,0.00,0,WeatherHawk,2013-03-11 05:24:00,
2013-03-10 22:30:00,45.7,30.0,30.37,SSE,164,0.0,-999.0,54,-99.99,,,0.00,1,WeatherHawk,2013-03-11 05:30:00,
2013-03-10 22:35:00,46.0,30.8,30.37,SSE,164,1.0,0.0,55,-99.99,,,0.00,0,WeatherHawk,2013-03-11 05:35:00,
2013-03-10 22:40:00,47.1,32.3,30.37,SSE,164,0.0,0.0,56,-99.99,,,0.00,0,WeatherHawk,2013-03-11 05:40:00,
2013-03-10 22:45:00,45.5,30.7,30.38,SSE,164,1.0,0.0,56,-99.99,,,0.00,0,WeatherHawk,2013-03-11 05:45:00,
2013-03-10 22:50:00,45.6,31.2,30.38,SSE,147,2.0,0.0,57,-99.99,,,0.00,0,WeatherHawk,2013-03-11 05:50:00,
2013-03-10 22:55:00,46.0,31.2,30.37,SE,140,0.0,0.0,56,-99.99,,,0.00,0,WeatherHawk,2013-03-11 05:55:00,
2013-03-10 23:00:00,47.4,32.0,30.37,SSE,168,6.0,0.0,55,-99.99,,,0.00,0,WeatherHawk,2013-03-11 06:00:00,
2013-03-10 23:05:00,46.7,31.4,30.37,SSW,193,6.0,0.0,55,-99.99,,,0.00,0,WeatherHawk,2013-03-11 06:05:00,
2013-03-10 23:10:00,47.0,31.7,30.37,SSW,198,5.0,0.0,55,-99.99,,,0.00,1,WeatherHawk,2013-03-11 06:10:00,
2013-03-10 23:15:00,45.8,31.9,30.37,SW,225,0.0,0.0,58,-99.99,,,0.00,0,WeatherHawk,2013-03-11 06:15:00,
2013-03-10 23:20:00,45.5,32.4,30.37,SW,225,0.0,0.0,60,-99.99,,,0.00,0,WeatherHawk,2013-03-11 06:20:00,
2013-03-10 23:25:00,44.5,31.5,30.37,SSW,206,0.0,0.0,60,-99.99,,,0.00,0,WeatherHawk,2013-03-11 06:25:00,
2013-03-10 23:30:00,45.7,33.0,30.37,SSW,206,0.0,-999.0,61,-99.99,,,0.00,0,WeatherHawk,2013-03-11 06:30:00,
2013-03-10 23:35:00,45.3,32.3,30.38,North,3,1.0,0.0,60,-99.99,,,0.00,0,WeatherHawk,2013-03-11 06:35:00,
2013-03-10 23:40:00,45.2,32.5,30.37,SE,135,3.0,0.0,61,-99.99,,,0.00,0,WeatherHawk,2013-03-11 06:40:00,
2013-03-10 23:45:00,46.4,32.9,30.38,East,98,4.0,0.0,59,-99.99,,,0.00,0,WeatherHawk,2013-03-11 06:45:00,
2013-03-10 23:50:00,46.4,32.0,30.37,East,92,3.0,0.0,57,-99.99,,,0.00,1,WeatherHawk,2013-03-11 06:50:00,
2013-03-10 23:55:00,46.3,31.9,30.37,East,90,2.0,0.0,57,-99.99,,,0.00,0,WeatherHawk,2013-03-11 06:55:00,